Temperature
22 21 21 20 20 20 23 24 25 25 25 25 25 24 23 22 21 20 20 20 21 20 20 20 20 20 19 19 19 19 19 19 19 19 19 19 19 19 19 19 19 19 19 19 19 19 19 18 18
22 21 21 20 20 21 23 25 25 25 25 25 24 24 23 22 21 21 20 21 21 21 20 20 20 20 19 19 19 19 19 19 19 19 19 19 19 19 19 19 19 19 19 19 19 18 18 18 18
22 21 21 20 21 22 24 25 25 26 26 25 24 24 23 22 21 21 21 21 21 21 20 20 20 20 19 19 19 19 19 19 19 19 19 19 19 19 19 19 19 18 18 18 18 18 18 18 18
22 21 21 20 22 24 25 26 26 26 26 25 24 23 22 22 22 21 21 21 21 21 20 20 20 20 19 19 19 19 19 19 19 19 19 19 19 19 19 19 19 18 18 18 18 18 18 18 18
22 21 21 22 24 25 26 27 26 26 25 24 23 22 22 22 22 21 21 21 21 20 20 20 20 20 19 19 19 19 19 19 19 19 19 19 19 19 19 19 19 18 18 18 18 18 18 18 18
22 21 21 22 25 26 27 27 26 25 24 24 23 22 22 22 22 21 21 21 21 20 20 20 20 20 19 19 19 19 19 19 19 19 19 19 19 19 18 18 18 18 18 18 18 18 18 18 18
22 21 22 23 25 26 27 27 26 25 25 24 23 22 22 22 22 21 21 21 21 20 20 20 20 20 19 19 19 19 19 19 19 19 19 19 19 18 18 18 18 18 18 18 18 18 18 18 18
24 22 23 24 25 26 27 27 26 26 25 24 24 22 22 22 22 21 21 21 21 20 20 20 20 20 19 19 19 19 19 19 19 18 18 18 18 18 18 18 18 18 18 18 18 18 18 18 18
25 22 23 24 25 26 27 27 26 26 25 24 24 23 23 22 22 21 21 21 20 20 20 20 20 19 19 19 19 19 19 19 19 18 18 18 18 18 18 18 18 18 18 18 18 18 18 18 18
25 22 24 26 26 26 27 26 26 25 24 24 23 23 23 22 22 21 21 21 20 20 20 20 20 19 19 19 19 19 19 19 19 18 18 18 18 18 18 18 18 18 18 18 18 18 18 18 18
25 24 26 27 27 27 26 27 26 25 23 23 23 23 23 22 22 21 21 21 21 20 20 20 20 19 19 19 19 19 19 19 19 19 18 18 18 18 18 18 18 18 18 18 18 18 18 18 18
27 27 27 28 28 27 27 27 26 25 24 24 24 23 23 22 22 22 21 21 21 20 20 20 20 19 19 19 19 19 19 19 19 18 18 18 18 18 18 18 18 18 18 18 18 18 18 18 18
27 27 28 28 28 27 27 26 25 25 25 24 24 23 23 22 22 22 21 21 21 21 20 20 20 19 19 19 19 19 19 19 19 19 18 18 18 18 18 18 18 18 18 18 18 18 18 18 18
27 28 28 27 27 27 26 25 25 24 25 24 24 23 23 22 22 22 21 21 21 21 20 20 20 19 19 19 19 19 19 19 19 19 18 18 18 18 18 18 18 18 18 18 18 18 18 18 18
28 26 26 26 27 27 26 25 25 24 24 24 24 23 23 23 22 22 22 21 21 21 20 20 20 19 19 19 19 19 19 19 19 19 18 18 18 18 18 18 18 18 18 18 18 18 18 18 18
26 25 25 26 26 27 25 24 25 25 24 24 24 23 23 23 23 22 22 22 21 21 20 20 20 20 19 19 19 19 19 19 19 19 19 19 18 18 18 18 18 18 18 18 18 18 18 18 18
25 24 25 26 27 26 25 24 24 25 25 24 24 23 23 23 22 22 22 22 21 21 21 20 20 20 20 19 19 19 19 19 19 19 19 19 18 18 18 18 18 18 18 18 18 18 18 18 18
24 25 26 26 26 26 25 24 24 25 24 24 24 23 23 23 22 22 22 22 22 21 21 21 20 20 20 20 19 19 19 19 19 19 19 19 19 18 19 19 18 18 18 18 18 18 18 18 18
26 26 26 26 27 26 24 24 24 24 24 24 23 23 23 23 23 22 22 22 22 21 21 21 20 20 20 20 20 19 19 19 19 19 19 19 19 19 19 19 19 18 18 18 18 18 18 18 18
27 26 26 26 27 26 24 24 24 23 24 23 23 23 23 23 23 22 22 22 22 21 21 21 20 20 20 20 20 20 19 19 19 19 19 19 19 19 19 19 19 18 18 18 18 18 18 18 18
27 26 26 25 26 25 25 23 23 23 24 24 23 23 23 23 23 23 22 22 22 22 21 21 21 20 20 20 20 20 19 19 19 19 19 19 18 18 18 18 18 18 18 18 18 18 18 18 18
26 27 27 27 24 23 24 22 22 22 22 23 23 23 23 23 23 23 23 22 22 22 21 21 21 21 20 20 20 20 20 19 19 19 19 18 18 18 18 18 18 18 18 18 18 18 18 18 18
27 28 27 26 24 23 23 22 22 22 22 22 23 23 23 23 23 23 23 23 22 22 22 21 21 21 20 20 20 20 20 19 19 19 19 18 18 18 18 18 18 18 18 18 18 18 18 17 18
28 27 25 23 22 23 23 22 22 21 22 23 23 23 23 23 23 23 23 23 22 22 22 22 21 21 20 20 20 20 20 19 19 19 19 19 18 18 18 18 18 18 18 18 18 18 17 17 17
27 24 23 23 21 22 22 22 22 23 23 23 23 24 24 23 23 23 23 22 22 22 22 22 21 21 20 20 20 20 20 19 19 19 19 18 18 18 18 18 18 18 18 18 18 17 17 17 17
26 24 23 23 22 22 22 22 22 24 24 24 24 24 24 23 23 23 23 23 22 22 22 21 21 21 21 20 20 20 19 19 19 19 18 18 18 18 18 18 18 18 18 18 18 17 17 17 17
26 24 23 21 22 22 22 22 22 23 23 23 24 24 24 24 23 23 23 23 22 22 22 22 21 21 21 21 20 20 19 19 19 19 18 18 18 18 18 18 18 18 18 17 17 17 17 17 17
26 24 22 22 22 22 22 22 21 22 22 22 23 23 24 23 23 23 23 23 22 22 22 22 21 21 21 21 20 20 19 19 19 19 18 18 18 18 18 18 18 18 17 17 17 17 17 17 17
26 25 22 20 21 21 21 22 23 22 22 22 22 24 24 23 23 23 23 23 22 22 22 21 21 21 21 20 20 20 19 19 19 18 18 18 18 18 18 18 18 17 17 17 17 17 17 17 16
25 24 22 22 21 20 20 21 24 23 22 23 23 23 23 23 23 23 23 23 22 22 22 21 21 21 20 20 20 19 19 19 18 18 18 18 18 18 18 17 17 17 17 17 17 16 16 16 16
Wind_Speed
12 9 3 1 1 2 2 2 4 6 6 7 10 10 8 7 4 4 2 8 9 6 6 7 7 7 8 7 7 7 7 7 7 8 9 10 10 10 10 10 9 9 9 8 8 8 8 8 9
9 6 2 1 3 3 2 3 6 7 9 10 10 11 9 7 6 6 4 8 9 7 6 7 8 8 8 7 7 7 7 7 7 8 9 10 10 10 9 9 9 8 8 8 8 8 7 7 8
7 4 1 1 1 2 2 3 7 9 10 8 6 7 6 5 6 4 6 10 8 6 6 7 8 8 8 7 7 7 6 7 8 9 10 10 10 9 9 9 9 8 7 7 7 7 7 7 7
3 1 1 2 1 2 3 3 7 10 9 9 8 6 5 4 4 6 10 10 9 6 7 7 9 8 8 7 7 6 6 7 8 10 9 9 9 9 9 8 8 7 7 7 7 7 7 7 6
1 1 2 1 0 1 3 6 8 9 6 8 10 7 4 3 9 11 10 10 9 6 6 8 9 8 8 7 6 5 6 7 8 9 9 9 8 8 8 8 7 7 7 7 6 6 6 6 6
1 2 2 1 2 2 5 7 10 12 11 10 9 7 4 5 9 9 10 9 9 7 6 7 8 7 7 7 6 6 7 7 8 9 9 8 8 8 7 7 7 7 7 7 6 5 4 5 5
2 2 1 1 1 2 5 7 8 9 9 6 7 6 4 4 7 8 9 8 8 7 5 4 5 6 6 6 7 7 8 8 8 8 8 8 7 7 6 7 7 7 8 7 6 5 4 4 5
4 2 0 1 2 2 4 6 6 9 8 8 6 7 5 5 7 9 9 8 7 6 5 4 5 5 5 5 6 7 8 8 8 8 7 6 6 5 6 5 6 7 7 7 6 5 4 4 5
3 2 1 4 4 2 6 9 6 7 9 6 5 6 8 10 10 10 9 7 6 5 3 4 4 4 5 5 5 5 5 6 6 6 6 4 3 2 3 4 5 6 6 6 5 4 3 3 4
4 3 5 5 5 4 6 9 7 6 9 8 8 9 11 11 11 10 8 7 6 5 4 3 4 4 4 4 4 3 3 3 3 3 4 3 2 2 3 3 4 5 4 4 3 3 2 1 1
5 5 4 2 3 5 6 6 6 9 7 9 12 11 10 11 10 9 7 6 6 5 5 4 4 4 4 3 3 3 2 3 3 3 3 3 2 1 1 1 2 2 2 1 1 1 1 1 1
2 3 3 2 3 5 6 7 7 7 8 11 13 12 11 11 9 9 8 6 5 5 5 4 4 4 3 3 3 3 2 2 2 2 3 2 2 2 1 1 1 1 1 0 1 1 0 0 0
0 1 0 4 5 5 8 8 9 8 11 11 12 12 11 11 9 7 8 7 6 6 5 4 4 4 3 3 2 3 2 1 1 2 2 3 2 2 2 2 1 1 1 1 1 1 1 0 0
1 1 2 3 5 5 10 7 7 8 11 11 11 11 11 10 9 8 7 6 6 6 5 4 4 4 4 3 3 2 2 2 2 2 2 4 3 3 2 2 2 1 1 1 1 1 1 1 1
1 3 4 2 3 3 8 5 5 10 11 10 10 11 10 9 10 9 7 7 7 6 5 5 5 4 4 3 2 2 2 2 2 2 2 3 4 3 2 2 1 0 1 1 2 2 2 1 1
3 3 1 4 2 2 7 4 5 8 10 10 9 10 9 8 8 8 7 7 6 6 5 5 5 4 4 3 2 2 2 2 2 2 2 3 3 3 2 2 1 1 2 2 2 1 2 1 1
3 0 3 5 3 3 5 4 6 8 10 9 8 9 9 8 7 7 8 8 7 7 6 5 4 4 3 3 2 2 2 2 1 1 1 2 2 3 3 2 1 1 2 2 1 2 1 1 0
4 3 3 4 3 4 4 5 6 7 9 9 8 8 8 9 8 8 8 9 8 7 6 5 4 3 3 2 2 2 2 1 1 1 1 2 2 2 3 2 1 2 2 2 1 2 1 1 1
6 3 3 5 3 3 5 6 7 6 8 7 6 7 8 8 7 8 9 9 8 6 6 5 4 3 2 2 2 1 0 0 0 0 1 2 2 2 2 2 1 2 2 1 1 1 1 1 1
3 2 3 3 1 2 3 3 4 4 8 9 8 8 9 7 7 8 8 8 7 7 6 5 5 4 3 2 2 2 1 1 1 0 0 1 2 2 2 2 2 1 1 1 1 1 1 1 1
3 4 5 4 1 4 4 2 1 2 2 3 5 6 8 11 11 9 8 8 8 7 7 6 5 4 3 2 2 2 2 2 2 2 1 1 1 1 1 1 2 1 2 1 1 1 2 0 1
4 5 6 5 3 0 2 1 4 4 3 5 4 5 7 8 9 9 9 8 9 8 7 6 5 4 3 3 3 4 3 1 1 1 1 1 1 1 2 2 2 1 1 1 1 1 1 1 1
6 4 3 3 3 3 1 3 5 1 3 6 6 6 7 8 10 10 10 10 9 8 8 6 5 4 4 4 4 4 2 1 0 1 2 2 2 1 1 1 1 1 1 1 1 0 0 1 1
2 3 5 5 4 1 4 4 4 5 8 6 7 9 9 8 8 8 8 8 7 7 7 6 6 4 4 4 4 4 4 2 2 1 1 1 1 1 2 1 1 0 0 1 1 0 0 0 0
2 5 3 5 4 3 2 2 6 7 7 8 8 9 9 8 7 8 8 8 8 8 7 7 7 5 5 5 4 4 4 4 3 2 2 1 1 1 2 1 1 1 0 0 1 0 1 0 0
3 7 6 4 3 3 2 2 6 4 4 5 5 7 8 7 7 8 9 9 9 9 8 7 7 6 6 6 5 4 4 3 2 2 2 2 1 1 0 0 0 1 1 1 1 0 1 0 1
2 2 7 6 2 0 2 3 5 2 2 3 5 6 7 7 8 8 8 9 8 8 8 8 8 7 7 7 6 4 4 3 3 2 2 2 1 1 0 1 0 1 1 1 1 1 1 1 1
5 5 5 5 4 1 3 3 3 3 2 3 5 6 6 6 7 7 8 7 7 8 7 6 7 8 7 7 6 6 5 4 4 3 3 2 2 1 1 1 1 1 1 1 1 1 1 1 1
1 3 4 4 5 6 3 5 5 8 6 6 6 7 7 6 7 7 6 6 6 6 6 6 6 5 5 6 5 5 4 4 4 3 3 2 2 2 1 1 1 0 0 1 0 0 0 0 1
4 4 6 4 2 4 4 6 4 6 7 7 6 4 5 6 6 6 6 4 4 5 6 6 5 5 5 5 5 5 4 4 4 4 3 3 2 2 2 2 1 1 1 0 1 1 1 0 1
Wind_Direction
167 163 167 159 33 25 34 70 98 78 66 66 76 81 78 66 91 133 181 145 144 149 152 142 132 126 119 120 121 121 122 123 124 126 125 125 127 127 126 127 129 132 135 136 136 134 137 146 155
163 166 165 42 52 43 24 84 91 98 114 107 85 83 77 69 86 118 135 152 146 145 144 136 131 127 119 115 117 122 123 125 126 129 131 132 132 132 131 133 134 135 136 137 140 142 143 144 154
173 185 139 69 50 140 107 102 106 105 104 98 83 62 67 88 101 128 156 150 136 134 136 134 127 127 121 117 119 121 124 129 130 132 136 136 136 135 135 138 140 140 141 146 147 149 152 150 152
167 147 49 56 184 207 146 134 110 100 87 79 92 68 52 74 109 135 141 139 132 135 136 136 129 127 123 120 121 120 123 135 137 136 139 141 142 142 140 143 144 147 149 151 149 151 157 157 157
146 99 39 3 18 125 127 117 104 93 85 86 92 93 72 62 112 123 130 134 134 135 138 141 134 130 126 126 123 116 122 129 137 138 139 144 146 149 150 151 152 154 155 152 153 156 163 169 166
98 84 59 16 21 86 91 96 94 96 106 105 99 102 88 111 118 123 123 124 129 138 140 139 135 130 128 130 123 115 117 123 133 139 139 143 151 156 159 159 161 161 158 156 160 165 173 179 177
157 124 185 174 74 90 110 104 104 115 114 116 120 102 111 120 131 125 118 118 116 121 126 131 136 133 132 132 125 113 106 122 129 135 140 141 149 156 160 163 168 167 164 164 168 176 187 192 185
174 116 106 144 114 108 118 107 103 106 103 120 117 120 145 157 132 114 106 106 109 108 111 116 120 125 128 133 125 112 107 113 125 135 135 136 143 153 157 164 165 165 168 170 174 182 198 198 193
146 92 217 191 161 178 123 100 77 79 96 88 94 126 144 137 120 106 97 94 102 104 97 101 112 122 129 132 121 114 110 106 116 127 131 121 122 146 155 150 152 157 164 173 182 192 201 201 195
138 158 214 203 168 150 128 119 115 93 91 92 95 103 119 117 116 115 115 113 109 116 121 111 109 115 129 132 125 129 117 102 113 120 111 111 118 147 147 153 150 156 162 170 177 190 202 189 193
165 185 202 209 151 125 118 110 112 118 118 138 138 136 131 121 121 123 123 124 125 129 122 114 113 112 117 119 132 133 130 120 114 104 102 94 84 95 103 154 150 144 143 172 179 208 246 159 167
156 209 189 151 118 114 125 120 108 122 145 147 144 142 136 134 134 133 130 125 121 116 113 111 106 98 103 110 116 124 127 127 130 129 117 112 87 71 82 115 158 155 188 170 216 159 176 217 175
111 257 330 125 103 107 105 110 114 121 133 139 138 132 135 138 136 135 134 131 121 111 109 108 110 101 95 94 98 106 106 116 137 124 119 125 113 87 87 100 118 140 169 158 163 142 130 124 163
268 40 88 102 92 103 110 112 108 136 137 133 131 132 140 140 138 133 133 133 131 131 132 126 115 118 105 97 92 96 114 120 117 122 123 128 128 108 104 94 90 92 144 162 141 128 139 162 116
24 29 24 59 105 131 106 86 133 153 143 137 138 139 140 142 140 143 147 145 145 143 140 136 129 117 104 104 106 109 116 112 109 116 115 123 128 120 111 105 105 74 103 106 93 93 104 95 80
16 40 356 278 164 161 116 159 182 160 149 149 150 147 144 146 150 149 147 142 142 135 133 137 126 114 111 110 98 103 109 101 105 109 116 127 131 129 111 100 100 103 85 85 98 93 84 71 68
20 326 255 275 223 158 129 175 193 170 155 155 157 153 151 150 155 154 150 146 144 140 134 128 121 123 123 122 107 100 113 108 131 127 111 127 132 132 122 110 105 100 78 75 105 83 92 88 29
237 249 263 243 241 153 151 168 164 167 154 157 158 155 154 159 168 162 153 147 143 140 132 129 123 125 118 103 88 66 60 61 107 142 141 119 138 138 129 112 80 81 84 60 59 88 82 153 210
203 212 268 271 223 155 159 150 164 167 155 153 162 162 164 171 172 161 156 151 143 141 138 138 135 138 123 116 119 114 137 107 52 189 162 154 155 154 131 118 89 85 94 91 58 75 52 14 39
196 195 244 284 274 128 143 149 168 178 183 172 169 172 172 168 163 165 159 153 152 155 156 156 159 161 158 154 154 155 161 179 172 343 46 149 157 171 152 134 131 125 109 59 54 79 54 353 59
247 185 208 211 37 58 91 27 275 245 202 182 178 182 175 171 171 171 167 163 160 161 165 166 170 163 167 162 123 98 68 44 38 18 359 354 177 181 157 138 133 136 135 142 166 139 131 248 303
262 220 190 174 126 72 111 198 261 225 223 209 199 186 184 175 168 172 170 168 169 172 168 164 167 163 163 150 136 133 131 144 214 236 337 4 69 131 118 120 121 129 134 165 222 169 165 153 278
222 204 168 150 123 75 42 124 282 228 220 223 207 192 190 177 170 175 181 179 175 171 169 168 163 165 162 152 149 140 135 151 149 62 43 29 19 31 68 119 101 121 155 186 215 127 124 157 193
172 59 34 46 75 84 236 157 257 225 208 207 204 194 184 176 171 175 181 173 171 169 169 167 163 173 173 165 155 147 152 151 122 92 84 52 19 359 348 29 32 83 157 169 193 190 162 194 226
94 93 38 1 14 257 245 150 238 238 210 194 192 185 178 177 176 176 173 172 171 171 175 173 169 180 184 177 177 172 171 169 166 169 159 146 122 358 316 360 15 14 234 124 91 118 286 283 283
205 140 157 189 215 275 337 220 257 254 210 184 174 169 166 178 179 178 178 176 178 179 179 179 180 189 190 186 189 186 172 173 172 170 161 163 173 204 282 31 9 351 4 54 72 94 278 331 285
170 164 164 141 147 81 302 301 316 3 82 132 147 157 175 182 178 175 175 174 179 180 184 186 187 193 194 191 189 186 177 175 178 173 161 165 175 168 125 100 32 349 23 38 59 52 336 352 336
148 147 87 107 141 206 294 259 227 233 203 169 164 172 183 185 179 170 171 177 183 181 182 183 188 195 193 191 188 184 185 181 174 170 170 172 181 164 137 128 72 17 16 27 52 33 347 27 356
114 92 104 113 144 153 205 266 214 194 190 182 180 175 174 163 156 159 173 181 181 173 172 179 187 185 190 191 188 182 182 179 170 175 186 177 171 172 168 167 177 228 32 56 64 325 337 23 348
151 163 146 149 209 158 162 258 249 178 173 176 166 157 156 140 137 146 161 161 159 173 176 182 187 188 190 187 181 180 178 174 178 187 192 181 180 187 181 174 183 203 234 248 212 273 303 293 328
Height
1514 1514 1514 1515 1516 1520 1517 1507 1500 1499 1499 1499 1498 1499 1502 1505 1509 1516 1511 1509 1509 1507 1506 1505 1503 1501 1500 1499 1499 1499 1499 1499 1499 1500 1501 1502 1503 1504 1505 1506 1507 1508 1509 1510 1510 1511 1512 1513 1514
1513 1514 1516 1516 1521 1529 1519 1505 1501 1499 1499 1499 1500 1502 1503 1507 1508 1509 1509 1509 1509 1508 1507 1505 1503 1502 1501 1500 1499 1499 1499 1498 1499 1499 1501 1502 1503 1504 1505 1506 1507 1508 1509 1510 1510 1511 1512 1513 1514
1514 1515 1516 1517 1522 1524 1515 1503 1500 1499 1499 1499 1502 1504 1506 1508 1509 1509 1509 1509 1509 1508 1507 1506 1504 1503 1502 1501 1500 1499 1498 1498 1498 1499 1501 1502 1503 1504 1505 1505 1506 1507 1508 1509 1510 1511 1512 1513 1514
1514 1516 1517 1521 1521 1511 1504 1501 1499 1500 1501 1501 1503 1507 1509 1510 1510 1510 1510 1510 1509 1509 1508 1507 1505 1504 1503 1501 1500 1499 1497 1497 1498 1499 1501 1502 1503 1504 1505 1506 1506 1507 1508 1509 1510 1511 1512 1513 1514
1515 1516 1520 1523 1515 1505 1500 1499 1499 1499 1502 1504 1504 1509 1511 1512 1511 1511 1511 1511 1510 1509 1508 1507 1506 1505 1503 1502 1501 1499 1496 1496 1497 1499 1501 1502 1503 1505 1505 1506 1506 1507 1508 1509 1511 1512 1512 1513 1514
1515 1516 1526 1527 1515 1504 1501 1500 1500 1502 1505 1506 1506 1509 1513 1514 1513 1512 1512 1512 1511 1510 1509 1508 1507 1505 1504 1503 1502 1500 1497 1496 1497 1499 1501 1503 1504 1505 1505 1505 1505 1506 1507 1509 1510 1512 1513 1513 1514
1516 1518 1523 1520 1515 1507 1502 1501 1501 1503 1505 1506 1507 1510 1514 1515 1514 1514 1513 1513 1512 1511 1510 1508 1507 1506 1505 1504 1503 1502 1499 1497 1498 1500 1502 1503 1504 1505 1505 1504 1504 1505 1506 1508 1510 1511 1512 1513 1514
1512 1516 1520 1518 1514 1510 1503 1501 1503 1503 1506 1508 1508 1510 1513 1515 1515 1515 1515 1514 1513 1512 1511 1509 1508 1507 1506 1506 1505 1504 1502 1500 1500 1502 1503 1504 1505 1505 1505 1504 1503 1504 1506 1509 1510 1511 1512 1513 1514
1511 1518 1522 1515 1511 1508 1503 1502 1505 1506 1506 1508 1509 1510 1513 1515 1516 1516 1515 1515 1515 1514 1512 1511 1509 1508 1508 1507 1507 1507 1506 1505 1504 1504 1505 1506 1506 1506 1506 1505 1505 1505 1507 1509 1511 1512 1513 1514 1514
1509 1519 1513 1504 1502 1503 1503 1503 1505 1508 1509 1510 1511 1513 1514 1515 1516 1516 1516 1516 1515 1515 1514 1513 1511 1510 1510 1509 1509 1509 1508 1508 1508 1508 1508 1507 1507 1506 1507 1507 1507 1508 1509 1511 1512 1512 1513 1514 1514
1504 1508 1502 1500 1500 1501 1502 1504 1505 1507 1511 1511 1511 1514 1515 1516 1517 1517 1517 1517 1517 1516 1516 1515 1514 1513 1512 1511 1511 1511 1511 1511 1510 1510 1510 1509 1508 1508 1508 1508 1509 1509 1511 1512 1513 1513 1514 1514 1515
1502 1500 1500 1500 1500 1501 1501 1503 1506 1507 1510 1511 1511 1513 1515 1516 1517 1517 1518 1518 1518 1518 1517 1517 1516 1515 1514 1514 1513 1513 1513 1512 1512 1512 1511 1511 1510 1510 1510 1510 1510 1511 1512 1513 1513 1514 1514 1515 1515
1501 1501 1500 1500 1500 1501 1502 1504 1506 1509 1511 1512 1513 1514 1516 1517 1518 1518 1519 1519 1519 1519 1518 1518 1517 1517 1516 1516 1515 1515 1514 1514 1514 1513 1513 1512 1512 1511 1511 1511 1512 1513 1513 1514 1514 1515 1515 1515 1515
1501 1500 1500 1501 1500 1502 1503 1506 1507 1511 1511 1513 1514 1515 1516 1517 1518 1519 1520 1520 1520 1520 1519 1519 1519 1518 1518 1518 1517 1516 1516 1516 1515 1515 1514 1514 1513 1513 1513 1513 1514 1514 1514 1515 1515 1515 1516 1516 1516
1500 1503 1503 1502 1501 1503 1504 1510 1509 1510 1511 1512 1514 1516 1517 1518 1518 1519 1520 1520 1520 1520 1520 1520 1520 1520 1519 1519 1519 1519 1518 1517 1517 1516 1516 1515 1515 1515 1515 1515 1515 1515 1515 1515 1516 1516 1516 1517 1517
1502 1509 1515 1506 1501 1502 1507 1519 1510 1510 1511 1513 1514 1516 1517 1519 1519 1520 1520 1520 1521 1521 1521 1521 1521 1521 1521 1521 1520 1520 1520 1519 1519 1518 1518 1517 1517 1517 1517 1516 1516 1516 1516 1516 1516 1517 1517 1517 1517
1513 1521 1517 1509 1500 1501 1506 1514 1509 1510 1511 1513 1514 1515 1517 1519 1520 1520 1520 1521 1521 1521 1521 1521 1521 1522 1522 1522 1521 1521 1521 1521 1520 1520 1519 1519 1519 1518 1518 1517 1517 1517 1517 1517 1517 1517 1517 1517 1517
1522 1519 1515 1512 1503 1502 1507 1509 1508 1510 1510 1512 1513 1515 1516 1517 1519 1520 1520 1521 1522 1522 1522 1522 1522 1522 1522 1522 1522 1522 1522 1522 1522 1521 1521 1520 1520 1520 1519 1519 1518 1518 1518 1518 1517 1518 1517 1517 1517
1507 1512 1514 1508 1501 1504 1508 1510 1509 1509 1510 1512 1513 1514 1516 1517 1519 1520 1520 1521 1521 1522 1522 1522 1522 1523 1523 1523 1522 1522 1522 1523 1522 1522 1522 1521 1521 1521 1520 1519 1519 1519 1518 1518 1518 1518 1518 1517 1517
1503 1511 1512 1506 1499 1504 1511 1512 1510 1510 1509 1510 1511 1513 1515 1516 1518 1519 1520 1520 1521 1521 1522 1522 1522 1522 1523 1523 1523 1523 1523 1523 1523 1523 1522 1522 1522 1521 1521 1520 1520 1519 1519 1519 1518 1518 1517 1517 1517
1502 1507 1509 1509 1504 1505 1512 1520 1516 1511 1510 1511 1511 1512 1512 1514 1515 1517 1519 1519 1520 1521 1522 1522 1523 1523 1523 1523 1523 1523 1523 1523 1523 1523 1522 1522 1522 1521 1521 1520 1520 1519 1519 1519 1518 1518 1517 1517 1517
1506 1496 1498 1503 1513 1523 1519 1537 1523 1515 1512 1510 1511 1511 1512 1513 1514 1516 1518 1519 1519 1521 1521 1522 1522 1523 1523 1523 1523 1523 1522 1522 1522 1522 1522 1522 1522 1522 1521 1520 1520 1519 1519 1518 1518 1518 1517 1517 1517
1496 1491 1496 1501 1512 1523 1523 1534 1528 1516 1516 1511 1509 1509 1510 1511 1513 1514 1517 1518 1519 1520 1521 1521 1522 1522 1523 1523 1523 1522 1522 1522 1522 1522 1522 1522 1522 1521 1521 1520 1520 1519 1519 1518 1518 1517 1517 1516 1516
1487 1493 1500 1509 1519 1536 1527 1533 1532 1518 1512 1507 1506 1507 1508 1510 1511 1513 1516 1518 1519 1520 1520 1520 1521 1521 1522 1522 1522 1522 1522 1522 1522 1522 1521 1521 1521 1520 1520 1519 1519 1518 1518 1517 1517 1517 1516 1516 1515
1491 1510 1531 1536 1543 1540 1524 1528 1525 1505 1501 1501 1501 1503 1505 1508 1509 1511 1514 1516 1517 1518 1519 1519 1520 1520 1521 1521 1521 1521 1521 1521 1520 1520 1520 1520 1520 1519 1519 1518 1518 1517 1517 1517 1516 1516 1515 1515 1514
1493 1505 1531 1544 1548 1538 1525 1529 1514 1499 1497 1497 1499 1501 1504 1506 1507 1509 1511 1513 1515 1516 1517 1518 1518 1519 1519 1520 1520 1520 1520 1520 1520 1520 1520 1520 1519 1519 1518 1518 1517 1517 1516 1516 1515 1515 1514 1513 1513
1494 1502 1504 1524 1532 1540 1533 1522 1509 1498 1498 1498 1500 1501 1503 1505 1506 1507 1509 1511 1512 1514 1515 1516 1516 1517 1518 1518 1518 1519 1519 1518 1519 1519 1519 1519 1518 1518 1517 1517 1516 1516 1515 1515 1514 1513 1512 1512 1511
1485 1492 1508 1523 1538 1546 1536 1528 1523 1509 1504 1500 1500 1501 1502 1504 1505 1506 1508 1509 1511 1512 1514 1515 1515 1515 1516 1516 1517 1517 1517 1517 1517 1517 1517 1517 1517 1516 1515 1515 1515 1514 1514 1513 1512 1512 1511 1510 1509
1490 1495 1506 1520 1524 1541 1545 1532 1502 1501 1500 1499 1499 1500 1501 1502 1503 1505 1507 1509 1510 1511 1512 1513 1513 1514 1514 1515 1515 1515 1515 1516 1516 1515 1515 1515 1514 1514 1514 1514 1513 1512 1512 1511 1511 1510 1509 1508 1507
1484 1491 1503 1520 1526 1529 1535 1527 1493 1493 1495 1496 1498 1500 1501 1502 1504 1505 1506 1508 1509 1510 1511 1511 1512 1512 1513 1513 1514 1514 1514 1514 1514 1513 1513 1514 1513 1513 1512 1512 1511 1511 1510 1510 1509 1508 1507 1506 1505